Regional Weather Roundup
Issued by NWS Little Rock, AR

Home | Current Version | Previous Version | Text Only | Print | Product List | Glossary On
Versions: 1 2 3 4 5 6 7 8 9 10 11 12 13 14 15 16 17 18 19 20 21 22 23 24 25 26 27
000
ASUS44 KLZK 240705
RWRLZK

WEATHER ROUNDUP FOR ARKANSAS
NATIONAL WEATHER SERVICE LITTLE ROCK AR
200 AM CDT THU APR 24 2014

NOTE: "FAIR" INDICATES FEW OR NO CLOUDS BELOW 12,000 FEET WITH NO
SIGNIFICANT WEATHER AND/OR OBSTRUCTIONS TO VISIBILITY.

ARZ001-003-010-029-240800-
NORTHWEST ARKANSAS

CITY           SKY/WX    TMP DP  RH WIND       PRES   REMARKS
FAYETTEVILLE   CLOUDY    66  47  50 S9        29.84F
FORT SMITH     CLOUDY    63  52  67 E6        29.83F
HARRISON       CLOUDY    58  44  60 SE7       29.87F
BENTONVILLE    CLOUDY    64  45  48 S12       29.83F
ROGERS         CLOUDY    65  44  46 SE15      29.83F
SILOAM SPGS    CLOUDY    64  46  52 SE14G20   29.82F
HIGHFILL       CLOUDY    63  48  58 SE10      29.82F
$$

ARZ004-005-016-240800-
NORTH CENTRAL ARKANSAS

CITY           SKY/WX    TMP DP  RH WIND       PRES   REMARKS
BATESVILLE     MOCLDY    59  43  55 SE5       29.89F
FLIPPIN        CLOUDY    57  39  51 CALM      29.88F
MTN HOME       CLOUDY    59  39  47 E7        29.87F
$$

ARZ040-041-240800-
WEST CENTRAL ARKANSAS

CITY           SKY/WX    TMP DP  RH WIND       PRES   REMARKS
MENA           MOCLDY   N/A N/A N/A SE8       29.86F
MOUNT IDA      PTCLDY    66  45  46 SE5       29.85S
$$

ARZ009-017-025-026-028-240800-
NORTHEAST ARKANSAS

CITY           SKY/WX    TMP DP  RH WIND       PRES   REMARKS
CORNING        FAIR      52  45  76 SE10      29.92F
JONESBORO      PTCLDY    53  43  68 NE5       29.91F
NEWPORT        MOCLDY    58  44  59 E15       29.91F
WALNUT RIDGE   MOCLDY    55  39  54 E8        29.90F
BLYTHEVILLE    PTCLDY    54  40  59 SE8       29.93F
$$

ARZ022-023-033-042-044-240800-
CENTRAL ARKANSAS

CITY           SKY/WX    TMP DP  RH WIND       PRES   REMARKS
LITTLE ROCK    PTCLDY    57  46  66 CALM      29.88F
N LITTLE ROCK    N/A     62  47  60 SE6       29.88F
JACKSONVILLE   PTCLDY    55  47  74 CALM      29.88F
SEARCY         MOCLDY    55  48  77 N3        29.90F
HOT SPRINGS    CLEAR     61  46  57 E7        29.87F
RUSSELLVILLE   MOCLDY    59  47  64 CALM      29.87S
CLINTON        FAIR      52  48  87 CALM      29.90F
$$

ARZ036-240800-
EAST ARKANSAS

CITY           SKY/WX    TMP DP  RH WIND       PRES   REMARKS
WEST MEMPHIS   PTCLDY    55  43  63 SE6       29.91F
$$

ARZ050-053-066-070-073-240800-
SOUTHWEST ARKANSAS

CITY           SKY/WX    TMP DP  RH WIND       PRES   REMARKS
ARKADELPHIA    FAIR      58  56  93 CALM      29.87S
CAMDEN         PTCLDY    57  46  67 MISG      29.86F
TEXARKANA      PTCLDY    66  48  52 SE8       29.86R
EL DORADO      CLEAR     59  47  64 E3        29.85F
DE QUEEN       CLOUDY    64  56  75 CALM      29.84R
$$

ARZ056-057-069-240800-
SOUTHEAST ARKANSAS

CITY           SKY/WX    TMP DP  RH WIND       PRES   REMARKS
PINE BLUFF     CLEAR     57  50  77 CALM      29.87F
STUTTGART      CLEAR     61  45  55 E7        29.89F
MONTICELLO     CLEAR     61  46  57 SE5       29.87F

$$





USA.gov is the U.S. government's official web portal to all federal, state and local government web resources and services.